Regional Weather Roundup
Issued by NWS

Home | Current Version | Previous Version | Graphics & Text | Print | Product List | Glossary On
Versions: 1 2 3 4 5 6 7 8 9 10 11 12 13 14 15 16 17 18 19 20 21 22 23 24 25 26 27 28 29 30 31 32 33 34 35 36 37 38 39 40 41 42 43 44 45 46 47 48 49 50
000
ASUS43 KIND 081959
RWRIN

WEATHER ROUNDUP FOR INDIANA
NATIONAL WEATHER SERVICE INDIANAPOLIS IN
300 PM EST THU DEC 08 2016

NOTE: "FAIR" INDICATES FEW OR NO CLOUDS BELOW 12,000 FEET WITH NO
SIGNIFICANT WEATHER AND/OR OBSTRUCTIONS TO VISIBILITY.

* - STATION DOES NOT REPORT WEATHER SUCH AS PRECIPITATION OR FOG.

+ - STATION NOT QUALITY CONTROLLED BY THE NATIONAL WEATHER SERVICE.
    USE DATA WITH CAUTION...ESPECIALLY DEWPOINT AND RELATIVE
    HUMIDITY OBSERVATIONS.

INZ001>003-010>013-019-020-082100-
NORTHWEST INDIANA

CITY           SKY/WX    TMP DP  RH WIND       PRES   REMARKS
GARY /AIRPORT/ FLURRIES  21  12  68 W26G39    30.31R WCI   4

$$

LMZ046-743>745-082100-
SOUTHERN LAKE MICHIGAN

STATION/POSITION TIME  TEMP    WIND        PRES    WAVE
                       AIR SEA DIR/SP/G            HT
                 (UTC) (F)     (DEG/KT/KT) (MB)    (FT)

$$

INZ004-005-014>016-021>024-082100-
NORTH CENTRAL INDIANA

CITY           SKY/WX    TMP DP  RH WIND       PRES   REMARKS
ELKHART        LGT SNOW  21  16  79 W13       30.24R WCI   9
GOSHEN         FLURRIES  21  12  68 W22       30.25R WCI   5
SOUTH BEND     NOT AVBL

$$

INZ006>009-017-018-025>027-082100-
NORTHEAST INDIANA

CITY           SKY/WX    TMP DP  RH WIND       PRES   REMARKS
ANGOLA *+      CLOUDY    19  16  86 W15G28    30.19R WCI   5
FORT WAYNE     NOT AVBL
KENDALLVILLE + FLURRIES  21  14  74 W14G22    30.22R WCI   8

$$

INZ028-029-035-036-043>045-051>053-082100-
WEST CENTRAL INDIANA

CITY           SKY/WX    TMP DP  RH WIND       PRES   REMARKS
CRAWFORDSVL +  CLOUDY    21  14  72 W17G26    30.35R WCI   7
GREENCASTLE +  CLOUDY    23  16  74 W10G21    30.36R WCI  12
LAFAYETTE      NOT AVBL
TERRE HAUTE    CLOUDY    24  13  62 W14       30.40S WCI  12

$$

INZ030>032-037>040-046>048-054>057-064-065-082100-
CENTRAL INDIANA

CITY           SKY/WX    TMP DP  RH WIND       PRES   REMARKS
ANDERSON       CLOUDY    25  14  63 W17G29    30.30R WCI  11
COLUMBUS       PTSUNNY   27  18  69 NW13      30.36R WCI  16
INDIANAPOLIS   NOT AVBL
-EAGLE CREEK   CLOUDY    24  13  62 W17G25    30.33R WCI  11
SHELBYVILLE    CLOUDY    24  14  65 W18G25    30.32S WCI  10

$$

INZ033-034-041-042-049-050-058-059-082100-
EAST CENTRAL INDIANA

CITY           SKY/WX    TMP DP  RH WIND       PRES   REMARKS
MUNCIE         CLOUDY    24  14  65 W18G29    30.28R WCI  10

$$

INZ060-061-067>069-081>083-085>088-082100-
SOUTHWEST INDIANA

CITY           SKY/WX    TMP DP  RH WIND       PRES   REMARKS
EVANSVILLE     NOT AVBL

$$

INZ062-063-066-070>080-084-089>092-082100-
SOUTH CENTRAL AND SOUTHEAST INDIANA

CITY           SKY/WX    TMP DP  RH WIND       PRES   REMARKS
BLOOMINGTON    CLOUDY    24  13  62 W13       30.37R WCI  12
MADISON *+     PTSUNNY   32  16  51 W15       30.35R WCI  22
SEYMOUR +      PTSUNNY   30  16  55 W15G22    30.36R WCI  19

$$





USA.gov is the U.S. government's official web portal to all federal, state and local government web resources and services.